Location: Chilton Park
(37.7711°N, 100.0276°W)
Time: 14:51:51
(UTC+00:00)

SL-4 R/B - Pass Details

Date: 08 December 2021
Orbit: 427 x 660 km, 51.6° (Epoch: 20 January)

Event Time Altitude Azimuth Distance (km) Brightness Sun altitude
Exits shadow 12:26:19 19° 240° (WSW) 1,116 3.2 -14.8°
Maximum altitude 12:28:41 70° 322° (NW) 480 1.5 -14.4°
Drops below altitude 10° 12:32:19 10° 47° (NE) 1,631 4.8 -13.7°
Sets 12:34:34 0° 49° (NE) 2,549 5.9 -13.3°
